This is the latest recevied weather packets stored in our database for station/object N0QWM. If no packets are shown the sender has not sent any weather packets the latest 10 day(s).
| Time | Temp. | Humidity | Pressure | Rain* | Wind** | Luminosity | Snow |
|---|---|---|---|---|---|---|---|
| 1788098810 | 27.22° C | 84% | 1026.3 hPa | 0 mm | - | 436 W/m² | - |
| 1788098504 | 27.22° C | 86% | 1026.5 hPa | 0 mm | - | 393 W/m² | - |
| 1788098200 | 26.67° C | 87% | 1026.5 hPa | 0 mm | - | 350 W/m² | - |
| 1788097894 | 26.67° C | 86% | 1026.7 hPa | 0 mm | - | 320 W/m² | - |
| 1788097591 | 26.11° C | 88% | 1026.4 hPa | 0 mm | - | 307 W/m² | - |
| 1788097286 | 25.56° C | 92% | 1026.6 hPa | 0 mm | - | 289 W/m² | - |
| 1788096981 | 25.56° C | 92% | 1026.5 hPa | 0 mm | - | 111 W/m² | - |
| 1788096682 | 25.56° C | 91% | 1026.6 hPa | 0 mm | - | 144 W/m² | - |
| 1788096372 | 25.56° C | 91% | 1026.6 hPa | 0 mm | - | 65 W/m² | - |
| 1788096068 | 25.56° C | 91% | 1026.4 hPa | 0 mm | - | 62 W/m² | - |
| 1788095767 | 25.56° C | 91% | 1026.4 hPa | 0 mm | - | 79 W/m² | - |
| 1788095461 | 25.56° C | 92% | 1026.3 hPa | 0 mm | - | 145 W/m² | - |
| 1788095156 | 25° C | 92% | 1026.2 hPa | 0 mm | - | 118 W/m² | - |
| 1788094846 | 25° C | 93% | 1026.2 hPa | 0 mm | - | 95 W/m² | - |
| 1788094546 | 24.44° C | 94% | 1026 hPa | 0 mm | - | 59 W/m² | - |
| 1788094245 | 24.44° C | 95% | 1026.2 hPa | 0 mm | - | 49 W/m² | - |
| 1788093944 | 24.44° C | 96% | 1025.9 hPa | 0 mm | - | 44 W/m² | - |
| 1788093640 | 23.89° C | 96% | 1026 hPa | 0 mm | - | 39 W/m² | - |
| 1788093337 | 23.89° C | 97% | 1025.7 hPa | 0 mm | - | 36 W/m² | - |
| 1788093032 | 23.33° C | 98% | 1026 hPa | 0 mm | - | 34 W/m² | - |
| 1788092728 | 23.33° C | 99% | 1025.7 hPa | 0 mm | - | 31 W/m² | - |
| 1788092424 | 22.78° C | 99% | 1025.8 hPa | 0 mm | - | 30 W/m² | - |
| 1788092120 | 22.78° C | 99% | 1025.9 hPa | 0 mm | - | 27 W/m² | - |
| 1788091819 | 22.78° C | 99% | 1025.7 hPa | 0 mm | - | 25 W/m² | - |
| 1788091514 | 22.78° C | 99% | 1025.7 hPa | 0 mm | - | 21 W/m² | - |
* Rain latest hour (hover to see other rain measurements)
** Current wind speed in m/s (hover to see current wind gust speed)